Location: Chippewa Lake
(41.0698°N, 81.9010°W)
Time: 22:02:51
(UTC+00:00)

ISS - Pass Details

Date: 09 May 2021
Orbit: 417 x 422 km, 51.6° (Epoch: 17 June)

Event Time Altitude Azimuth Distance (km) Brightness Sun altitude
Rises 09:22:28 0° 310° (NW) 2,375 -0.1 -9.6°
Reaches altitude 10° 09:24:56 10° 327° (NNW) 1,510 -0.9 -9.2°
Maximum altitude 09:27:35 21° 19° (NNE) 1,018 -1.1 -8.8°
Drops below altitude 10° 09:30:13 10° 70° (ENE) 1,508 0.6 -8.4°
Sets 09:32:41 0° 87° (E) 2,371 1.3 -8.0°
